Year,Month,Day,Hour,Minute,Value (Times are PST for temperature in C)
2012,10,08,00,00,9.20
2012,10,08,00,01,9.20
2012,10,08,00,02,9.20
2012,10,08,00,03,9.20
2012,10,08,00,04,9.20
2012,10,08,00,05,9.10
2012,10,08,00,06,9.10
2012,10,08,00,07,9.10
2012,10,08,00,08,9.10
2012,10,08,00,09,9.10
2012,10,08,00,10,9.10
2012,10,08,00,11,9.10
2012,10,08,00,12,9.00
2012,10,08,00,13,9.00
2012,10,08,00,14,9.00
2012,10,08,00,15,9.00
2012,10,08,00,16,9.00
2012,10,08,00,17,9.00
2012,10,08,00,18,9.00
2012,10,08,00,19,8.90
2012,10,08,00,20,8.90
2012,10,08,00,21,8.90
2012,10,08,00,22,8.90
2012,10,08,00,23,8.90
2012,10,08,00,24,8.90
2012,10,08,00,25,8.90
2012,10,08,00,26,8.90
2012,10,08,00,27,8.90
2012,10,08,00,28,8.80
2012,10,08,00,29,8.80
2012,10,08,00,30,8.90
2012,10,08,00,31,8.90
2012,10,08,00,32,8.90
2012,10,08,00,33,8.90
2012,10,08,00,34,8.90
2012,10,08,00,35,8.90
2012,10,08,00,36,9.00
2012,10,08,00,37,9.00
2012,10,08,00,38,9.00
2012,10,08,00,39,9.00
2012,10,08,00,40,9.00
2012,10,08,00,41,9.00
2012,10,08,00,42,9.00
2012,10,08,00,43,9.00
2012,10,08,00,44,9.00
2012,10,08,00,45,8.90
2012,10,08,00,46,8.90
2012,10,08,00,47,8.90
2012,10,08,00,48,8.90
2012,10,08,00,49,8.90
2012,10,08,00,50,8.90
2012,10,08,00,51,8.90
2012,10,08,00,52,8.90
2012,10,08,00,53,8.90
2012,10,08,00,54,8.90
2012,10,08,00,55,8.90
2012,10,08,00,56,8.80
2012,10,08,00,57,8.80
2012,10,08,00,58,8.80
2012,10,08,00,59,8.80
2012,10,08,01,00,8.80
2012,10,08,01,01,8.80
2012,10,08,01,02,8.80
2012,10,08,01,03,8.80
2012,10,08,01,04,8.70
2012,10,08,01,05,8.70
2012,10,08,01,06,8.70
2012,10,08,01,07,8.70
2012,10,08,01,08,8.70
2012,10,08,01,09,8.60
2012,10,08,01,10,8.60
2012,10,08,01,11,8.60
2012,10,08,01,12,8.60
2012,10,08,01,13,8.60
2012,10,08,01,14,8.60
2012,10,08,01,15,8.60
2012,10,08,01,16,8.60
2012,10,08,01,17,8.60
2012,10,08,01,18,8.60
2012,10,08,01,19,8.60
2012,10,08,01,20,8.60
2012,10,08,01,21,8.60
2012,10,08,01,22,8.60
2012,10,08,01,23,8.60
2012,10,08,01,24,8.50
2012,10,08,01,25,8.50
2012,10,08,01,26,8.50
2012,10,08,01,27,8.50
2012,10,08,01,28,8.50
2012,10,08,01,29,8.40
2012,10,08,01,30,8.40
2012,10,08,01,31,8.40
2012,10,08,01,32,8.40
2012,10,08,01,33,8.40
2012,10,08,01,34,8.40
2012,10,08,01,35,8.40
2012,10,08,01,36,8.40
2012,10,08,01,37,8.40
2012,10,08,01,38,8.40
2012,10,08,01,39,8.40
2012,10,08,01,40,8.40
2012,10,08,01,41,8.40
2012,10,08,01,42,8.40
2012,10,08,01,43,8.40
2012,10,08,01,44,8.40
2012,10,08,01,45,8.40
2012,10,08,01,46,8.40
2012,10,08,01,47,8.40
2012,10,08,01,48,8.40
2012,10,08,01,49,8.40
2012,10,08,01,50,8.40
2012,10,08,01,51,8.40
2012,10,08,01,52,8.40
2012,10,08,01,53,8.40
2012,10,08,01,54,8.40
2012,10,08,01,55,8.40
2012,10,08,01,56,8.40
2012,10,08,01,57,8.40
2012,10,08,01,58,8.40
2012,10,08,01,59,8.40
2012,10,08,02,00,8.40
2012,10,08,02,01,8.40
2012,10,08,02,02,8.40
2012,10,08,02,03,8.50
2012,10,08,02,04,8.50
2012,10,08,02,05,8.50
2012,10,08,02,06,8.50
2012,10,08,02,07,8.50
2012,10,08,02,08,8.50
2012,10,08,02,09,8.50
2012,10,08,02,10,8.50
2012,10,08,02,11,8.50
2012,10,08,02,12,8.50
2012,10,08,02,13,8.50
2012,10,08,02,14,8.50
2012,10,08,02,15,8.50
2012,10,08,02,16,8.60
2012,10,08,02,17,8.50
2012,10,08,02,18,8.50
2012,10,08,02,19,8.50
2012,10,08,02,20,8.50
2012,10,08,02,21,8.50
2012,10,08,02,22,8.50
2012,10,08,02,23,8.50
2012,10,08,02,24,8.50
2012,10,08,02,25,8.50
2012,10,08,02,26,8.50
2012,10,08,02,27,8.50
2012,10,08,02,28,8.50
2012,10,08,02,29,8.50
2012,10,08,02,30,8.50
2012,10,08,02,31,8.50
2012,10,08,02,32,8.60
2012,10,08,02,33,8.60
2012,10,08,02,34,8.60
2012,10,08,02,35,8.60
2012,10,08,02,36,8.60
2012,10,08,02,37,8.60
2012,10,08,02,38,8.70
2012,10,08,02,39,8.70
2012,10,08,02,40,8.80
2012,10,08,02,41,8.90
2012,10,08,02,42,8.90
2012,10,08,02,43,9.00
2012,10,08,02,44,9.00
2012,10,08,02,45,9.00
2012,10,08,02,46,9.00
2012,10,08,02,47,8.90
2012,10,08,02,48,8.90
2012,10,08,02,49,8.90
2012,10,08,02,50,8.80
2012,10,08,02,51,8.80
2012,10,08,02,52,8.70
2012,10,08,02,53,8.70
2012,10,08,02,54,8.60
2012,10,08,02,55,8.60
2012,10,08,02,56,8.60
2012,10,08,02,57,8.50
2012,10,08,02,58,8.50
2012,10,08,02,59,8.40
2012,10,08,03,00,8.40
2012,10,08,03,01,8.30
2012,10,08,03,02,8.30
2012,10,08,03,03,8.30
2012,10,08,03,04,8.20
2012,10,08,03,05,8.20
2012,10,08,03,06,8.10
2012,10,08,03,07,8.10
2012,10,08,03,08,8.10
2012,10,08,03,09,8.00
2012,10,08,03,10,8.00
2012,10,08,03,11,8.00
2012,10,08,03,12,7.90
2012,10,08,03,13,7.90
2012,10,08,03,14,7.90
2012,10,08,03,15,7.90
2012,10,08,03,16,7.90
2012,10,08,03,17,7.80
2012,10,08,03,18,7.80
2012,10,08,03,19,7.80
2012,10,08,03,20,7.80
2012,10,08,03,21,7.80
2012,10,08,03,22,7.70
2012,10,08,03,23,7.70
2012,10,08,03,24,7.70
2012,10,08,03,25,7.70
2012,10,08,03,26,7.70
2012,10,08,03,27,7.70
2012,10,08,03,28,7.70
2012,10,08,03,29,7.70
2012,10,08,03,30,7.70
2012,10,08,03,31,7.70
2012,10,08,03,32,7.70
2012,10,08,03,33,7.70
2012,10,08,03,34,7.70
2012,10,08,03,35,7.60
2012,10,08,03,36,7.60
2012,10,08,03,37,7.60
2012,10,08,03,38,7.60
2012,10,08,03,39,7.60
2012,10,08,03,40,7.60
2012,10,08,03,41,7.70
2012,10,08,03,42,7.70
2012,10,08,03,43,7.70
2012,10,08,03,44,7.70
2012,10,08,03,45,7.70
2012,10,08,03,46,7.70
2012,10,08,03,47,7.70
2012,10,08,03,48,7.70
2012,10,08,03,49,7.70
2012,10,08,03,50,7.60
2012,10,08,03,51,7.60
2012,10,08,03,52,7.60
2012,10,08,03,53,7.60
2012,10,08,03,54,7.60
2012,10,08,03,55,7.60
2012,10,08,03,56,7.50
2012,10,08,03,57,7.50
2012,10,08,03,58,7.50
2012,10,08,03,59,7.50
2012,10,08,04,00,7.40
2012,10,08,04,01,7.40
2012,10,08,04,02,7.40
2012,10,08,04,03,7.40
2012,10,08,04,04,7.40
2012,10,08,04,05,7.40
2012,10,08,04,06,7.40
2012,10,08,04,07,7.40
2012,10,08,04,08,7.40
2012,10,08,04,09,7.40
2012,10,08,04,10,7.40
2012,10,08,04,11,7.30
2012,10,08,04,12,7.30
2012,10,08,04,13,7.30
2012,10,08,04,14,7.30
2012,10,08,04,15,7.30
2012,10,08,04,16,7.30
2012,10,08,04,17,7.30
2012,10,08,04,18,7.30
2012,10,08,04,19,7.30
2012,10,08,04,20,7.30
2012,10,08,04,21,7.30
2012,10,08,04,22,7.30
2012,10,08,04,23,7.30
2012,10,08,04,24,7.30
2012,10,08,04,25,7.40
2012,10,08,04,26,7.40
2012,10,08,04,27,7.40
2012,10,08,04,28,7.40
2012,10,08,04,29,7.50
2012,10,08,04,30,7.50
2012,10,08,04,31,7.50
2012,10,08,04,32,7.50
2012,10,08,04,33,7.50
2012,10,08,04,34,7.40
2012,10,08,04,35,7.40
2012,10,08,04,36,7.40
2012,10,08,04,37,7.40
2012,10,08,04,38,7.40
2012,10,08,04,39,7.40
2012,10,08,04,40,7.40
2012,10,08,04,41,7.40
2012,10,08,04,42,7.40
2012,10,08,04,43,7.40
2012,10,08,04,44,7.40
2012,10,08,04,45,7.40
2012,10,08,04,46,7.40
2012,10,08,04,47,7.40
2012,10,08,04,48,7.30
2012,10,08,04,49,7.30
2012,10,08,04,50,7.30
2012,10,08,04,51,7.30
2012,10,08,04,52,7.30
2012,10,08,04,53,7.30
2012,10,08,04,54,7.30
2012,10,08,04,55,7.30
2012,10,08,04,56,7.30
2012,10,08,04,57,7.20
2012,10,08,04,58,7.20
2012,10,08,04,59,7.20
2012,10,08,05,00,7.20
2012,10,08,05,01,7.20
2012,10,08,05,02,7.20
2012,10,08,05,03,7.20
2012,10,08,05,04,7.30
2012,10,08,05,05,7.20
2012,10,08,05,06,7.30
2012,10,08,05,07,7.30
2012,10,08,05,08,7.30
2012,10,08,05,09,7.30
2012,10,08,05,10,7.30
2012,10,08,05,11,7.30
2012,10,08,05,12,7.30
2012,10,08,05,13,7.30
2012,10,08,05,14,7.30
2012,10,08,05,15,7.30
2012,10,08,05,16,7.30
2012,10,08,05,17,7.30
2012,10,08,05,18,7.20
2012,10,08,05,19,7.20
2012,10,08,05,20,7.20
2012,10,08,05,21,7.20
2012,10,08,05,22,7.20
2012,10,08,05,23,7.20
2012,10,08,05,24,7.20
2012,10,08,05,25,7.20
2012,10,08,05,26,7.20
2012,10,08,05,27,7.20
2012,10,08,05,28,7.20
2012,10,08,05,29,7.20
2012,10,08,05,30,7.20
2012,10,08,05,31,7.20
2012,10,08,05,32,7.20
2012,10,08,05,33,7.20
2012,10,08,05,34,7.20
2012,10,08,05,35,7.20
2012,10,08,05,36,7.20
2012,10,08,05,37,7.20
2012,10,08,05,38,7.20
2012,10,08,05,39,7.20
2012,10,08,05,40,7.20
2012,10,08,05,41,7.20
2012,10,08,05,42,7.20
2012,10,08,05,43,7.20
2012,10,08,05,44,7.20
2012,10,08,05,45,7.20
2012,10,08,05,46,7.10
2012,10,08,05,47,7.10
2012,10,08,05,48,7.10
2012,10,08,05,49,7.10
2012,10,08,05,50,7.10
2012,10,08,05,51,7.10
2012,10,08,05,52,7.10
2012,10,08,05,53,7.10
2012,10,08,05,54,7.10
2012,10,08,05,55,7.10
2012,10,08,05,56,7.10
2012,10,08,05,57,7.10
2012,10,08,05,58,7.10
2012,10,08,05,59,7.10
2012,10,08,06,00,7.10
2012,10,08,06,01,7.10
2012,10,08,06,02,7.10
2012,10,08,06,03,7.10
2012,10,08,06,04,7.10
2012,10,08,06,05,7.10
2012,10,08,06,06,7.10
2012,10,08,06,07,7.00
2012,10,08,06,08,7.00
2012,10,08,06,09,7.00
2012,10,08,06,10,7.00
2012,10,08,06,11,7.00
2012,10,08,06,12,7.00
2012,10,08,06,13,7.00
2012,10,08,06,14,7.00
2012,10,08,06,15,7.00
2012,10,08,06,16,7.00
2012,10,08,06,17,7.00
2012,10,08,06,18,7.00
2012,10,08,06,19,7.00
2012,10,08,06,20,7.00
2012,10,08,06,21,7.00
2012,10,08,06,22,7.00
2012,10,08,06,23,7.00
2012,10,08,06,24,6.90
2012,10,08,06,25,6.90
2012,10,08,06,26,6.90
2012,10,08,06,27,6.90
2012,10,08,06,28,6.90
2012,10,08,06,29,6.90
2012,10,08,06,30,6.90
2012,10,08,06,31,6.90
2012,10,08,06,32,6.80
2012,10,08,06,33,6.80
2012,10,08,06,34,6.80
2012,10,08,06,35,6.80
2012,10,08,06,36,6.80
2012,10,08,06,37,6.80
2012,10,08,06,38,6.80
2012,10,08,06,39,6.80
2012,10,08,06,40,6.80
2012,10,08,06,41,6.80
2012,10,08,06,42,6.70
2012,10,08,06,43,6.70
2012,10,08,06,44,6.70
2012,10,08,06,45,6.70
2012,10,08,06,46,6.70
2012,10,08,06,47,6.70
2012,10,08,06,48,6.70
2012,10,08,06,49,6.70
2012,10,08,06,50,6.70
2012,10,08,06,51,6.60
2012,10,08,06,52,6.60
2012,10,08,06,53,6.60
2012,10,08,06,54,6.60
2012,10,08,06,55,6.60
2012,10,08,06,56,6.70
2012,10,08,06,57,6.70
2012,10,08,06,58,6.70
2012,10,08,06,59,6.70
2012,10,08,07,00,6.70
2012,10,08,07,01,6.70
2012,10,08,07,02,6.70
2012,10,08,07,03,6.70
2012,10,08,07,04,6.70
2012,10,08,07,05,6.70
2012,10,08,07,06,6.70
2012,10,08,07,07,6.70
2012,10,08,07,08,6.60
2012,10,08,07,09,6.60
2012,10,08,07,10,6.60
2012,10,08,07,11,6.60
2012,10,08,07,12,6.60
2012,10,08,07,13,6.60
2012,10,08,07,14,6.60
2012,10,08,07,15,6.60
2012,10,08,07,16,6.60
2012,10,08,07,17,6.50
2012,10,08,07,18,6.50
2012,10,08,07,19,6.50
2012,10,08,07,20,6.50
2012,10,08,07,21,6.50
2012,10,08,07,22,6.50
2012,10,08,07,23,6.50
2012,10,08,07,24,6.50
2012,10,08,07,25,6.40
2012,10,08,07,26,6.40
2012,10,08,07,27,6.40
2012,10,08,07,28,6.40
2012,10,08,07,29,6.40
2012,10,08,07,30,6.40
2012,10,08,07,31,6.40
2012,10,08,07,32,6.40
2012,10,08,07,33,6.40
2012,10,08,07,34,6.40
2012,10,08,07,35,6.40
2012,10,08,07,36,6.40
2012,10,08,07,37,6.40
2012,10,08,07,38,6.40
2012,10,08,07,39,6.50
2012,10,08,07,40,6.50
2012,10,08,07,41,6.50
2012,10,08,07,42,6.50
2012,10,08,07,43,6.50
2012,10,08,07,44,6.50
2012,10,08,07,45,6.50
2012,10,08,07,46,6.50
2012,10,08,07,47,6.50
2012,10,08,07,48,6.50
2012,10,08,07,49,6.60
2012,10,08,07,50,6.60
2012,10,08,07,51,6.60
2012,10,08,07,52,6.60
2012,10,08,07,53,6.60
2012,10,08,07,54,6.60
2012,10,08,07,55,6.70
2012,10,08,07,56,6.70
2012,10,08,07,57,6.70
2012,10,08,07,58,6.70
2012,10,08,07,59,6.80
2012,10,08,08,00,6.80
2012,10,08,08,01,6.80
2012,10,08,08,02,6.90
2012,10,08,08,03,7.00
2012,10,08,08,04,7.10
2012,10,08,08,05,7.20
2012,10,08,08,06,7.20
2012,10,08,08,07,7.30
2012,10,08,08,08,7.30
2012,10,08,08,09,7.40
2012,10,08,08,10,7.40
2012,10,08,08,11,7.40
2012,10,08,08,12,7.50
2012,10,08,08,13,7.50
2012,10,08,08,14,7.50
2012,10,08,08,15,7.50
2012,10,08,08,16,7.60
2012,10,08,08,17,7.60
2012,10,08,08,18,7.60
2012,10,08,08,19,7.60
2012,10,08,08,20,7.60
2012,10,08,08,21,7.60
2012,10,08,08,22,7.60
2012,10,08,08,23,7.60
2012,10,08,08,24,7.60
2012,10,08,08,25,7.70
2012,10,08,08,26,7.70
2012,10,08,08,27,7.70
2012,10,08,08,28,7.70
2012,10,08,08,29,7.70
2012,10,08,08,30,7.80
2012,10,08,08,31,7.80
2012,10,08,08,32,7.80
2012,10,08,08,33,7.90
2012,10,08,08,34,7.90
2012,10,08,08,35,8.00
2012,10,08,08,36,8.10
2012,10,08,08,37,8.10
2012,10,08,08,38,8.20
2012,10,08,08,39,8.20
2012,10,08,08,40,8.30
2012,10,08,08,41,8.30
2012,10,08,08,42,8.40
2012,10,08,08,43,8.40
2012,10,08,08,44,8.50
2012,10,08,08,45,8.50
2012,10,08,08,46,8.60
2012,10,08,08,47,8.70
2012,10,08,08,48,8.80
2012,10,08,08,49,8.80
2012,10,08,08,50,8.90
2012,10,08,08,51,9.00
2012,10,08,08,52,9.10
2012,10,08,08,53,9.20
2012,10,08,08,54,9.30
2012,10,08,08,55,9.40
2012,10,08,08,56,9.50
2012,10,08,08,57,9.50
2012,10,08,08,58,9.60
2012,10,08,08,59,9.70
2012,10,08,09,00,9.80
2012,10,08,09,01,9.90
2012,10,08,09,02,10.00
2012,10,08,09,03,10.10
2012,10,08,09,04,10.20
2012,10,08,09,05,10.30
2012,10,08,09,06,10.30
2012,10,08,09,07,10.40
2012,10,08,09,08,10.50
2012,10,08,09,09,10.60
2012,10,08,09,10,10.70
2012,10,08,09,11,10.80
2012,10,08,09,12,11.00
2012,10,08,09,13,11.20
2012,10,08,09,14,11.40
2012,10,08,09,15,11.70
2012,10,08,09,16,11.90
2012,10,08,09,17,12.10
2012,10,08,09,18,12.20
2012,10,08,09,19,12.30
2012,10,08,09,20,12.50
2012,10,08,09,21,12.70
2012,10,08,09,22,12.90
2012,10,08,09,23,13.00
2012,10,08,09,24,13.20
2012,10,08,09,25,13.40
2012,10,08,09,26,13.50
2012,10,08,09,27,13.60
2012,10,08,09,28,13.70
2012,10,08,09,29,13.70
2012,10,08,09,30,13.70
2012,10,08,09,31,13.80
2012,10,08,09,32,13.70
2012,10,08,09,33,13.70
2012,10,08,09,34,13.70
2012,10,08,09,35,13.70
2012,10,08,09,36,13.80
2012,10,08,09,37,13.80
2012,10,08,09,38,13.80
2012,10,08,09,39,13.90
2012,10,08,09,40,13.90
2012,10,08,09,41,14.00
2012,10,08,09,42,14.00
2012,10,08,09,43,14.10
2012,10,08,09,44,14.20
2012,10,08,09,45,14.20
2012,10,08,09,46,14.30
2012,10,08,09,47,14.40
2012,10,08,09,48,14.40
2012,10,08,09,49,14.50
2012,10,08,09,50,14.50
2012,10,08,09,51,14.50
2012,10,08,09,52,14.50
2012,10,08,09,53,14.60
2012,10,08,09,54,14.60
2012,10,08,09,55,14.60
2012,10,08,09,56,14.60
2012,10,08,09,57,14.60
2012,10,08,09,58,14.60
2012,10,08,09,59,14.60
2012,10,08,10,00,14.60
2012,10,08,10,01,14.60
2012,10,08,10,02,14.60
2012,10,08,10,03,14.60
2012,10,08,10,04,14.60
2012,10,08,10,05,14.60
2012,10,08,10,06,14.70
2012,10,08,10,07,14.80
2012,10,08,10,08,14.90
2012,10,08,10,09,15.00
2012,10,08,10,10,15.00
2012,10,08,10,11,15.00
2012,10,08,10,12,15.00
2012,10,08,10,13,15.00
2012,10,08,10,14,15.20
2012,10,08,10,15,15.30
2012,10,08,10,16,15.40
2012,10,08,10,17,15.50
2012,10,08,10,18,15.60
2012,10,08,10,19,15.70
2012,10,08,10,20,15.80
2012,10,08,10,21,15.80
2012,10,08,10,22,15.90
2012,10,08,10,23,16.00
2012,10,08,10,24,16.00
2012,10,08,10,25,16.00
2012,10,08,10,26,15.90
2012,10,08,10,27,15.90
2012,10,08,10,28,15.90
2012,10,08,10,29,15.80
2012,10,08,10,30,15.80
2012,10,08,10,31,15.80
2012,10,08,10,32,15.80
2012,10,08,10,33,15.90
2012,10,08,10,34,15.90
2012,10,08,10,35,15.90
2012,10,08,10,36,15.90
2012,10,08,10,37,15.70
2012,10,08,10,38,15.70
2012,10,08,10,39,15.60
2012,10,08,10,40,15.50
2012,10,08,10,41,15.40
2012,10,08,10,42,15.20
2012,10,08,10,43,15.20
2012,10,08,10,44,15.20
2012,10,08,10,45,15.10
2012,10,08,10,46,15.10
2012,10,08,10,47,15.20
2012,10,08,10,48,15.20
2012,10,08,10,49,15.20
2012,10,08,10,50,15.20
2012,10,08,10,51,15.20
2012,10,08,10,52,15.20
2012,10,08,10,53,15.30
2012,10,08,10,54,15.30
2012,10,08,10,55,15.40
2012,10,08,10,56,15.40
2012,10,08,10,57,15.40
2012,10,08,10,58,15.40
2012,10,08,10,59,15.50
2012,10,08,11,00,15.60
2012,10,08,11,01,15.60
2012,10,08,11,02,15.70
2012,10,08,11,03,15.70
2012,10,08,11,04,15.70
2012,10,08,11,05,15.70
2012,10,08,11,06,15.70
2012,10,08,11,07,15.70
2012,10,08,11,08,15.70
2012,10,08,11,09,15.60
2012,10,08,11,10,15.60
2012,10,08,11,11,15.60
2012,10,08,11,12,15.50
2012,10,08,11,13,15.40
2012,10,08,11,14,15.50
2012,10,08,11,15,15.50
2012,10,08,11,16,15.50
2012,10,08,11,17,15.60
2012,10,08,11,18,15.60
2012,10,08,11,19,15.60
2012,10,08,11,20,15.70
2012,10,08,11,21,15.70
2012,10,08,11,22,15.80
2012,10,08,11,23,15.80
2012,10,08,11,24,15.90
2012,10,08,11,25,15.90
2012,10,08,11,26,15.90
2012,10,08,11,27,16.00
2012,10,08,11,28,16.00
2012,10,08,11,29,16.10
2012,10,08,11,30,16.10
2012,10,08,11,31,16.10
2012,10,08,11,32,16.20
2012,10,08,11,33,16.20
2012,10,08,11,34,16.20
2012,10,08,11,35,16.30
2012,10,08,11,36,16.20
2012,10,08,11,37,16.20
2012,10,08,11,38,16.20
2012,10,08,11,39,16.20
2012,10,08,11,40,16.30
2012,10,08,11,41,16.40
2012,10,08,11,42,16.50
2012,10,08,11,43,16.60
2012,10,08,11,44,16.60
2012,10,08,11,45,16.60
2012,10,08,11,46,16.60
2012,10,08,11,47,16.70
2012,10,08,11,48,16.70
2012,10,08,11,49,16.80
2012,10,08,11,50,16.80
2012,10,08,11,51,16.70
2012,10,08,11,52,16.60
2012,10,08,11,53,16.60
2012,10,08,11,54,16.70
2012,10,08,11,55,16.70
2012,10,08,11,56,16.70
2012,10,08,11,57,16.80
2012,10,08,11,58,16.80
2012,10,08,11,59,16.90
2012,10,08,12,00,16.90
2012,10,08,12,01,16.90
2012,10,08,12,02,16.90
2012,10,08,12,03,17.00
2012,10,08,12,04,17.00
2012,10,08,12,05,17.10
2012,10,08,12,06,17.10
2012,10,08,12,07,17.10
2012,10,08,12,08,17.20
2012,10,08,12,09,17.20
2012,10,08,12,10,17.20
2012,10,08,12,11,17.30
2012,10,08,12,12,17.30
2012,10,08,12,13,17.30
2012,10,08,12,14,17.30
2012,10,08,12,15,17.30
2012,10,08,12,16,17.40
2012,10,08,12,17,17.40
2012,10,08,12,18,17.50
2012,10,08,12,19,17.60
2012,10,08,12,20,17.60
2012,10,08,12,21,17.70
2012,10,08,12,22,17.70
2012,10,08,12,23,17.80
2012,10,08,12,24,17.80
2012,10,08,12,25,17.90
2012,10,08,12,26,17.90
2012,10,08,12,27,17.90
2012,10,08,12,28,18.00
2012,10,08,12,29,18.00
2012,10,08,12,30,18.10
2012,10,08,12,31,18.10
2012,10,08,12,32,18.20
2012,10,08,12,33,18.20
2012,10,08,12,34,18.30
2012,10,08,12,35,18.40
2012,10,08,12,36,18.50
2012,10,08,12,37,18.50
2012,10,08,12,38,18.50
2012,10,08,12,39,18.50
2012,10,08,12,40,18.50
2012,10,08,12,41,18.50
2012,10,08,12,42,18.40
2012,10,08,12,43,18.30
2012,10,08,12,44,18.20
2012,10,08,12,45,18.10
2012,10,08,12,46,18.00
2012,10,08,12,47,17.90
2012,10,08,12,48,17.80
2012,10,08,12,49,17.50
2012,10,08,12,50,17.30
2012,10,08,12,51,16.90
2012,10,08,12,52,16.60
2012,10,08,12,53,16.10
2012,10,08,12,54,15.70
2012,10,08,12,55,15.40
2012,10,08,12,56,15.10
2012,10,08,12,57,14.90
2012,10,08,12,58,14.80
2012,10,08,12,59,14.70
2012,10,08,13,00,14.70
2012,10,08,13,01,14.60
2012,10,08,13,02,14.60
2012,10,08,13,03,14.70
2012,10,08,13,04,14.70
2012,10,08,13,05,14.80
2012,10,08,13,06,14.80
2012,10,08,13,07,14.90
2012,10,08,13,08,15.00
2012,10,08,13,09,15.00
2012,10,08,13,10,15.00
2012,10,08,13,11,15.10
2012,10,08,13,12,15.20
2012,10,08,13,13,15.20
2012,10,08,13,14,15.30
2012,10,08,13,15,15.30
2012,10,08,13,16,15.20
2012,10,08,13,17,15.20
2012,10,08,13,18,15.20
2012,10,08,13,19,15.20
2012,10,08,13,20,15.20
2012,10,08,13,21,15.10
2012,10,08,13,22,15.20
2012,10,08,13,23,15.20
2012,10,08,13,24,15.20
2012,10,08,13,25,15.20
2012,10,08,13,26,15.20
2012,10,08,13,27,15.30
2012,10,08,13,28,15.30
2012,10,08,13,29,15.40
2012,10,08,13,30,15.50
2012,10,08,13,31,15.50
2012,10,08,13,32,15.60
2012,10,08,13,33,15.70
2012,10,08,13,34,15.80
2012,10,08,13,35,15.90
2012,10,08,13,36,16.00
2012,10,08,13,37,16.10
2012,10,08,13,38,16.10
2012,10,08,13,39,16.20
2012,10,08,13,40,16.20
2012,10,08,13,41,16.30
2012,10,08,13,42,16.40
2012,10,08,13,43,16.40
2012,10,08,13,44,16.40
2012,10,08,13,45,16.50
2012,10,08,13,46,16.50
2012,10,08,13,47,16.70
2012,10,08,13,48,16.80
2012,10,08,13,49,16.90
2012,10,08,13,50,17.00
2012,10,08,13,51,17.10
2012,10,08,13,52,17.20
2012,10,08,13,53,17.20
2012,10,08,13,54,17.20
2012,10,08,13,55,17.20
2012,10,08,13,56,17.20
2012,10,08,13,57,17.30
2012,10,08,13,58,17.30
2012,10,08,13,59,17.40
2012,10,08,14,00,17.50
2012,10,08,14,01,17.50
2012,10,08,14,02,17.60
2012,10,08,14,03,17.60
2012,10,08,14,04,17.70
2012,10,08,14,05,17.70
2012,10,08,14,06,17.80
2012,10,08,14,07,17.80
2012,10,08,14,08,17.80
2012,10,08,14,09,17.80
2012,10,08,14,10,17.80
2012,10,08,14,11,17.80
2012,10,08,14,12,17.80
2012,10,08,14,13,17.80
2012,10,08,14,14,17.80
2012,10,08,14,15,17.70
2012,10,08,14,16,17.80
2012,10,08,14,17,17.80
2012,10,08,14,18,17.90
2012,10,08,14,19,17.90
2012,10,08,14,20,18.00
2012,10,08,14,21,18.00
2012,10,08,14,22,18.10
2012,10,08,14,23,18.20
2012,10,08,14,24,18.20
2012,10,08,14,25,18.30
2012,10,08,14,26,18.40
2012,10,08,14,27,18.40
2012,10,08,14,28,18.50
2012,10,08,14,29,18.60
2012,10,08,14,30,18.60
2012,10,08,14,31,18.50
2012,10,08,14,32,18.60
2012,10,08,14,33,18.60
2012,10,08,14,34,18.60
2012,10,08,14,35,18.50
2012,10,08,14,36,18.50
2012,10,08,14,37,18.40
2012,10,08,14,38,18.30
2012,10,08,14,39,18.20
2012,10,08,14,40,18.20
2012,10,08,14,41,18.10
2012,10,08,14,42,18.00
2012,10,08,14,43,18.00
2012,10,08,14,44,18.00
2012,10,08,14,45,18.00
2012,10,08,14,46,18.00
2012,10,08,14,47,17.90
2012,10,08,14,48,17.90
2012,10,08,14,49,17.90
2012,10,08,14,50,17.90
2012,10,08,14,51,18.00
2012,10,08,14,52,18.00
2012,10,08,14,53,18.10
2012,10,08,14,54,18.00
2012,10,08,14,55,18.00
2012,10,08,14,56,17.80
2012,10,08,14,57,17.70
2012,10,08,14,58,17.70
2012,10,08,14,59,17.70
2012,10,08,15,00,17.70
2012,10,08,15,01,17.70
2012,10,08,15,02,17.60
2012,10,08,15,03,17.60
2012,10,08,15,04,17.60
2012,10,08,15,05,17.60
2012,10,08,15,06,17.70
2012,10,08,15,07,17.60
2012,10,08,15,08,17.60
2012,10,08,15,09,17.50
2012,10,08,15,10,17.40
2012,10,08,15,11,17.40
2012,10,08,15,12,17.40
2012,10,08,15,13,17.50
2012,10,08,15,14,17.50
2012,10,08,15,15,17.40
2012,10,08,15,16,17.40
2012,10,08,15,17,17.50
2012,10,08,15,18,17.50
2012,10,08,15,19,17.60
2012,10,08,15,20,17.70
2012,10,08,15,21,17.70
2012,10,08,15,22,17.80
2012,10,08,15,23,17.80
2012,10,08,15,24,17.80
2012,10,08,15,25,17.80
2012,10,08,15,26,17.80
2012,10,08,15,27,17.90
2012,10,08,15,28,17.90
2012,10,08,15,29,17.90
2012,10,08,15,30,17.90
2012,10,08,15,31,17.90
2012,10,08,15,32,17.90
2012,10,08,15,33,18.00
2012,10,08,15,34,18.10
2012,10,08,15,35,18.20
2012,10,08,15,36,18.30
2012,10,08,15,37,18.40
2012,10,08,15,38,18.40
2012,10,08,15,39,18.50
2012,10,08,15,40,18.70
2012,10,08,15,41,18.80
2012,10,08,15,42,18.90
2012,10,08,15,43,18.90
2012,10,08,15,44,18.90
2012,10,08,15,45,18.90
2012,10,08,15,46,18.80
2012,10,08,15,47,18.70
2012,10,08,15,48,18.60
2012,10,08,15,49,18.40
2012,10,08,15,50,18.30
2012,10,08,15,51,18.20
2012,10,08,15,52,18.10
2012,10,08,15,53,18.10
2012,10,08,15,54,18.00
2012,10,08,15,55,17.90
2012,10,08,15,56,17.80
2012,10,08,15,57,17.80
2012,10,08,15,58,17.70
2012,10,08,15,59,17.70
2012,10,08,16,00,17.70
2012,10,08,16,01,17.70
2012,10,08,16,02,17.70
2012,10,08,16,03,17.80
2012,10,08,16,04,17.80
2012,10,08,16,05,17.80
2012,10,08,16,06,17.80
2012,10,08,16,07,17.80
2012,10,08,16,08,17.80
2012,10,08,16,09,17.80
2012,10,08,16,10,17.80
2012,10,08,16,11,17.80
2012,10,08,16,12,17.90
2012,10,08,16,13,17.90
2012,10,08,16,14,18.00
2012,10,08,16,15,18.00
2012,10,08,16,16,18.10
2012,10,08,16,17,18.10
2012,10,08,16,18,18.20
2012,10,08,16,19,18.20
2012,10,08,16,20,18.20
2012,10,08,16,21,18.20
2012,10,08,16,22,18.30
2012,10,08,16,23,18.40
2012,10,08,16,24,18.60
2012,10,08,16,25,18.70
2012,10,08,16,26,19.00
2012,10,08,16,27,19.10
2012,10,08,16,28,19.30
2012,10,08,16,29,19.40
2012,10,08,16,30,19.60
2012,10,08,16,31,19.80
2012,10,08,16,32,19.90
2012,10,08,16,33,20.00
2012,10,08,16,34,20.00
2012,10,08,16,35,20.10
2012,10,08,16,36,20.20
2012,10,08,16,37,20.20
2012,10,08,16,38,20.20
2012,10,08,16,39,20.30
2012,10,08,16,40,20.30
2012,10,08,16,41,20.30
2012,10,08,16,42,20.30
2012,10,08,16,43,20.40
2012,10,08,16,44,20.40
2012,10,08,16,45,20.40
2012,10,08,16,46,20.50
2012,10,08,16,47,20.50
2012,10,08,16,48,20.50
2012,10,08,16,49,20.60
2012,10,08,16,50,20.60
2012,10,08,16,51,20.60
2012,10,08,16,52,20.60
2012,10,08,16,53,20.70
2012,10,08,16,54,20.70
2012,10,08,16,55,20.70
2012,10,08,16,56,20.70
2012,10,08,16,57,20.70
2012,10,08,16,58,20.60
2012,10,08,16,59,20.60
2012,10,08,17,00,20.60
2012,10,08,17,01,20.60
2012,10,08,17,02,20.60
2012,10,08,17,03,20.50
2012,10,08,17,04,20.50
2012,10,08,17,05,20.50
2012,10,08,17,06,20.50
2012,10,08,17,07,20.40
2012,10,08,17,08,20.40
2012,10,08,17,09,20.40
2012,10,08,17,10,20.40
2012,10,08,17,11,20.40
2012,10,08,17,12,20.30
2012,10,08,17,13,20.30
2012,10,08,17,14,20.30
2012,10,08,17,15,20.20
2012,10,08,17,16,20.20
2012,10,08,17,17,20.20
2012,10,08,17,18,20.10
2012,10,08,17,19,20.10
2012,10,08,17,20,20.00
2012,10,08,17,21,20.00
2012,10,08,17,22,19.90
2012,10,08,17,23,19.90
2012,10,08,17,24,19.90
2012,10,08,17,25,19.80
2012,10,08,17,26,19.80
2012,10,08,17,27,19.80
2012,10,08,17,28,19.70
2012,10,08,17,29,19.70
2012,10,08,17,30,19.70
2012,10,08,17,31,19.60
2012,10,08,17,32,19.60
2012,10,08,17,33,19.60
2012,10,08,17,34,19.50
2012,10,08,17,35,19.50
2012,10,08,17,36,19.40
2012,10,08,17,37,19.40
2012,10,08,17,38,19.40
2012,10,08,17,39,19.40
2012,10,08,17,40,19.30
2012,10,08,17,41,19.30
2012,10,08,17,42,19.30
2012,10,08,17,43,19.30